Погода в Томпсоне

Канада     55°44′40″N   97°51′07″W
темп.,
°C
ветер,
м/с
пор.,
м/с
влажн.,
%
обл.,
%
осадки,
мм/ч
давл.,
гПа
погр.,
м
3 августа, вт
вт301:00+15ю22624 0.0 101517
04:00+14юз36731 0.0 101499
07:00+16зюз28692 0.0 1013182
10:00+25зюз47400 0.0 1011748
13:00+31з58261 0.0 10092077
16:00+34зсз58195 0.0 10073781
19:00+33з462171 0.0 10063286
22:00+26юз3936100 0.0 1005213
4 августа, ср
ср401:00+21зюз3646100 0.0 1005108
04:00+23сз61352100 0.0 10061126
07:00+13св4893100 1.0 1008286
10:00+15св4777100 0.1 1010707
13:00+16св4555100 0.1 1012892
16:00+21всв2433100 0.0 10121437
19:00+22св23243 0.0 10121983
22:00+13ссв22465 0.0 101318
5 августа, чт
чт501:00+10всв226024 0.0 101431
04:00+9ююв1173100 0.0 101410
07:00+10ю138797 0.0 1014102
10:00+16сз1257100 0.0 1014512
13:00+20сз242998 0.0 10121819
16:00+23ссз342455 0.0 10102458
19:00+22с442746 0.0 10101920
22:00+14св385077 0.0 1011145
6 августа, пт
пт601:00+14в225299 0.0 101227
04:00+14всв1151100 0.0 101310
07:00+14св2353100 0.0 101374
10:00+19вюв23375 0.0 1013540
13:00+24юв222793 0.0 10121966
16:00+27ю13255 0.0 10112641
19:00+26ю332655 0.0 10102726
22:00+18ююв34455 0.0 101059
7 августа, сб
сб701:00+15юв25510 0.0 100982
04:00+13ю22601 0.0 100931
07:00+14ю28764 0.0 1008195
10:00+23ююв36475 0.0 1006648
13:00+29ю573254 0.0 10031423
16:00+31ю682912 0.0 10011673
19:00+30ю710335 0.0 9991090
22:00+24ююз6154427 0.0 999898